| time (UTC) | temp C | wind direction | speed KPH | gust KPH | rain 1hr cm | rain 24hr cm | rain mn cm | humidity % | barometer mb |
| 20260507010128 | 1 | 12 | 4.8 | 11.3 | 0.00 | 2.54 | 0.00 | 84 | 1013.5 |
| 20260507005628 | 2 | 12 | 4.8 | 11.3 | 0.00 | 2.54 | 0.00 | 85 | 1013.4 |
| 20260507005128 | 2 | 10 | 4.8 | 11.3 | 0.00 | 2.54 | 0.00 | 85 | 1013.5 |
| 20260507004628 | 2 | 11 | 3.2 | 8.0 | 0.00 | 2.54 | 0.00 | 84 | 1013.5 |
| 20260507004128 | 2 | 10 | 4.8 | 9.7 | 0.00 | 2.54 | 0.00 | 84 | 1013.4 |
| 20260507003128 | 2 | 15 | 4.8 | 11.3 | 0.00 | 2.54 | 0.00 | 85 | 1013.3 |
| 20260507002128 | 2 | 18 | 3.2 | 8.0 | 0.00 | 2.54 | 0.00 | 84 | 1013.3 |
| 20260507001627 | 2 | 11 | 3.2 | 11.3 | 0.00 | 2.54 | 0.00 | 84 | 1013.3 |
| 20260507000628 | 3 | 9 | 3.2 | 8.0 | 0.00 | 2.54 | 0.00 | 84 | 1013.3 |
| 20260507000128 | 3 | 16 | 4.8 | 9.7 | 0.00 | 2.54 | 0.00 | 84 | 1013.4 |
| 20260506235128 | 3 | 15 | 3.2 | 14.5 | 0.00 | 2.54 | 0.00 | 84 | 1013.4 |
| 20260506234628 | 3 | 12 | 4.8 | 8.0 | 0.00 | 2.54 | 0.00 | 84 | 1013.3 |
| 20260506233627 | 3 | 14 | 3.2 | 9.7 | 0.00 | 2.54 | 0.00 | 84 | 1013.3 |
| 20260506233127 | 3 | 13 | 4.8 | 12.9 | 0.00 | 2.54 | 0.00 | 84 | 1013.4 |
| 20260506232127 | 3 | 12 | 4.8 | 11.3 | 0.00 | 2.54 | 0.00 | 84 | 1013.4 |
| 20260506231628 | 3 | 13 | 4.8 | 11.3 | 0.00 | 2.54 | 0.00 | 84 | 1013.4 |
| 20260506231128 | 3 | 16 | 4.8 | 12.9 | 0.00 | 2.54 | 0.00 | 84 | 1013.3 |
| 20260506230628 | 3 | 10 | 6.4 | 27.4 | 0.00 | 2.54 | 0.00 | 84 | 1013.4 |
| 20260506230127 | 3 | 6 | 8.0 | 19.3 | 0.00 | 2.54 | 0.00 | 84 | 1013.4 |
| 20260506225627 | 3 | 13 | 8.0 | 12.9 | 0.00 | 2.54 | 0.00 | 84 | 1013.5 |
| 20260506225128 | 3 | 12 | 8.0 | 14.5 | 0.00 | 2.54 | 0.00 | 84 | 1013.4 |
| 20260506224127 | 4 | 11 | 11.3 | 19.3 | 0.00 | 2.54 | 0.00 | 84 | 1013.4 |
| 20260506223627 | 4 | 13 | 9.7 | 20.9 | 0.00 | 2.54 | 0.00 | 84 | 1013.5 |
| 20260506223127 | 4 | 12 | 9.7 | 19.3 | 0.00 | 2.54 | 0.00 | 84 | 1013.5 |
| 20260506222128 | 3 | 14 | 11.3 | 20.9 | 0.00 | 2.54 | 0.00 | 84 | 1013.4 |
| 20260506221628 | 3 | 11 | 12.9 | 19.3 | 0.00 | 2.54 | 0.00 | 84 | 1013.5 |
| 20260506221128 | 3 | 10 | 11.3 | 19.3 | 0.00 | 2.54 | 0.00 | 84 | 1013.5 |
| 20260506220627 | 3 | 17 | 8.0 | 20.9 | 0.00 | 2.54 | 0.00 | 84 | 1013.5 |
| 20260506220127 | 3 | 20 | 11.3 | 19.3 | 0.00 | 2.54 | 0.00 | 84 | 1013.4 |
| 20260506215627 | 3 | 10 | 11.3 | 20.9 | 0.00 | 2.54 | 2.54 | 84 | 1013.4 |
| 20260506215128 | 3 | 12 | 14.5 | 24.1 | 0.00 | 2.54 | 2.54 | 84 | 1013.4 |
| 20260506214627 | 3 | 11 | 9.7 | 22.5 | 0.00 | 2.54 | 2.54 | 84 | 1013.4 |
| 20260506214128 | 3 | 11 | 12.9 | 22.5 | 0.00 | 2.54 | 2.54 | 84 | 1013.4 |
| 20260506213628 | 3 | 14 | 12.9 | 20.9 | 0.00 | 2.54 | 2.54 | 84 | 1013.4 |
| 20260506213127 | 3 | 15 | 9.7 | 19.3 | 0.00 | 2.54 | 2.54 | 84 | 1013.5 |
| 20260506212128 | 3 | 13 | 11.3 | 20.9 | 0.00 | 2.54 | 2.54 | 84 | 1013.5 |
| 20260506211628 | 3 | 11 | 9.7 | 19.3 | 0.00 | 2.54 | 2.54 | 84 | 1013.5 |
| 20260506211128 | 3 | 15 | 9.7 | 16.1 | 0.00 | 2.54 | 2.54 | 84 | 1013.5 |
| 20260506210627 | 3 | 14 | 9.7 | 19.3 | 0.00 | 2.54 | 2.54 | 84 | 1013.4 |
| 20260506210127 | 3 | 17 | 11.3 | 19.3 | 0.00 | 2.54 | 2.54 | 84 | 1013.4 |
| 20260506205627 | 3 | 10 | 9.7 | 19.3 | 0.00 | 2.54 | 2.54 | 84 | 1013.5 |
| 20260506205128 | 4 | 14 | 8.0 | 14.5 | 0.00 | 2.54 | 2.54 | 84 | 1013.5 |
| 20260506204627 | 4 | 18 | 4.8 | 12.9 | 0.00 | 2.54 | 2.54 | 84 | 1013.5 |
| 20260506204128 | 4 | 12 | 14.5 | 22.5 | 0.00 | 2.54 | 2.54 | 84 | 1013.5 |
| 20260506203628 | 4 | 9 | 11.3 | 19.3 | 0.00 | 2.54 | 2.54 | 84 | 1013.4 |
| 20260506203128 | 4 | 11 | 11.3 | 16.1 | 0.00 | 2.54 | 2.54 | 84 | 1013.4 |
| 20260506202628 | 4 | 15 | 11.3 | 19.3 | 0.00 | 2.54 | 2.54 | 84 | 1013.5 |
| 20260506202127 | 4 | 14 | 9.7 | 19.3 | 0.00 | 2.54 | 2.54 | 84 | 1013.4 |
| 20260506201628 | 4 | 12 | 11.3 | 19.3 | 0.00 | 2.54 | 2.54 | 84 | 1013.5 |
| 20260506200628 | 4 | 11 | 14.5 | 19.3 | 0.00 | 2.57 | 2.54 | 84 | 1013.3 |
| 20260506200128 | 4 | 14 | 8.0 | 12.9 | 0.00 | 2.57 | 2.54 | 84 | 1013.3 |
| 20260506195628 | 4 | 12 | 6.4 | 12.9 | 0.00 | 2.59 | 2.54 | 84 | 1013.4 |
| 20260506195128 | 4 | 12 | 8.0 | 12.9 | 0.00 | 2.59 | 2.54 | 84 | 1013.3 |
| 20260506194627 | 4 | 11 | 11.3 | 20.9 | 0.00 | 2.59 | 2.54 | 84 | 1013.3 |
| 20260506194128 | 4 | 8 | 8.0 | 12.9 | 0.00 | 2.59 | 2.54 | 84 | 1013.2 |
| 20260506193628 | 4 | 11 | 8.0 | 12.9 | 0.00 | 2.59 | 2.54 | 84 | 1013.1 |
| 20260506192627 | 4 | 13 | 4.8 | 9.7 | 0.00 | 2.59 | 2.54 | 84 | 1013.0 |
| 20260506192127 | 4 | 11 | 4.8 | 8.0 | 0.00 | 2.59 | 2.54 | 84 | 1013.0 |
| 20260506191628 | 4 | 9 | 4.8 | 9.7 | 0.00 | 2.59 | 2.54 | 84 | 1012.9 |
| 20260506191127 | 4 | 10 | 6.4 | 9.7 | 0.00 | 2.59 | 2.54 | 84 | 1012.9 |
| 20260506190628 | 3 | 16 | 4.8 | 12.9 | 0.00 | 2.59 | 2.54 | 84 | 1012.8 |
| 20260506190128 | 4 | 15 | 9.7 | 19.3 | 0.00 | 2.59 | 2.54 | 84 | 1012.8 |
| 20260506185628 | 3 | 11 | 4.8 | 11.3 | 0.00 | 2.59 | 2.54 | 84 | 1012.8 |
| 20260506184628 | 3 | 14 | 3.2 | 4.8 | 0.00 | 2.62 | 2.54 | 84 | 1012.7 |
| 20260506182627 | 4 | 14 | 1.6 | 4.8 | 0.00 | 2.62 | 2.54 | 84 | 1012.6 |
| 20260506182127 | 4 | 15 | 3.2 | 8.0 | 0.00 | 2.62 | 2.54 | 84 | 1012.5 |
| 20260506181627 | 4 | 12 | 4.8 | 11.3 | 0.00 | 2.62 | 2.54 | 84 | 1012.4 |
| 20260506181127 | 4 | 9 | 3.2 | 4.8 | 0.00 | 2.62 | 2.54 | 84 | 1012.3 |
| 20260506180627 | 4 | 13 | 4.8 | 9.7 | 0.00 | 2.64 | 2.54 | 84 | 1012.4 |
| 20260506180128 | 4 | 9 | 4.8 | 8.0 | 0.00 | 2.67 | 2.54 | 84 | 1012.3 |
| 20260506175627 | 4 | 14 | 4.8 | 9.7 | 0.00 | 2.69 | 2.54 | 84 | 1012.4 |
| 20260506175128 | 5 | 9 | 4.8 | 9.7 | 0.00 | 2.69 | 2.54 | 84 | 1012.3 |
| 20260506174627 | 4 | 16 | 3.2 | 4.8 | 0.00 | 2.69 | 2.54 | 84 | 1012.3 |
| 20260506174127 | 4 | 12 | 3.2 | 11.3 | 0.00 | 2.69 | 2.54 | 84 | 1012.3 |
| 20260506173627 | 4 | 13 | 3.2 | 8.0 | 0.00 | 2.69 | 2.54 | 84 | 1012.3 |
| 20260506173127 | 4 | 11 | 4.8 | 9.7 | 0.00 | 2.69 | 2.54 | 84 | 1012.3 |
| 20260506172627 | 4 | 13 | 4.8 | 11.3 | 0.00 | 2.69 | 2.54 | 84 | 1012.1 |
| 20260506172128 | 4 | 15 | 3.2 | 11.3 | 0.00 | 2.72 | 2.54 | 84 | 1012.1 |
| 20260506171628 | 5 | 14 | 9.7 | 14.5 | 0.00 | 2.74 | 2.54 | 84 | 1012.1 |
| 20260506171128 | 5 | 10 | 4.8 | 11.3 | 0.00 | 2.77 | 2.54 | 84 | 1011.9 |
| 20260506170627 | 5 | 17 | 6.4 | 16.1 | 0.00 | 2.79 | 2.54 | 84 | 1011.9 |
| 20260506165627 | 5 | 7 | 3.2 | 14.5 | 0.00 | 2.84 | 2.54 | 84 | 1011.8 |
| 20260506165127 | 5 | 12 | 4.8 | 12.9 | 0.00 | 2.84 | 2.54 | 84 | 1011.8 |
| 20260506164627 | 5 | 14 | 3.2 | 11.3 | 0.03 | 2.87 | 2.54 | 84 | 1011.8 |
| 20260506164128 | 5 | 10 | 3.2 | 11.3 | 0.03 | 2.87 | 2.54 | 84 | 1011.8 |
| 20260506163127 | 5 | 8 | 9.7 | 19.3 | 0.03 | 2.95 | 2.54 | 84 | 1011.8 |
| 20260506162627 | 5 | 14 | 1.6 | 11.3 | 0.03 | 2.97 | 2.54 | 84 | 1011.8 |
| 20260506162127 | 5 | 14 | 4.8 | 19.3 | 0.03 | 2.97 | 2.54 | 84 | 1011.8 |
| 20260506161627 | 5 | 10 | 8.0 | 19.3 | 0.03 | 2.97 | 2.54 | 84 | 1011.9 |
| 20260506161127 | 5 | 12 | 4.8 | 14.5 | 0.03 | 2.97 | 2.54 | 84 | 1011.8 |
| 20260506160627 | 5 | 14 | 8.0 | 19.3 | 0.03 | 2.97 | 2.54 | 84 | 1011.9 |
| 20260506155127 | 5 | 13 | 4.8 | 14.5 | 0.03 | 3.00 | 2.54 | 84 | 1011.9 |
| 20260506154627 | 4 | 14 | 3.2 | 8.0 | 0.00 | 2.97 | 2.51 | 84 | 1011.8 |
| 20260506153627 | 4 | 11 | 8.0 | 19.3 | 0.00 | 2.97 | 2.51 | 84 | 1011.7 |
| 20260506153127 | 5 | 11 | 8.0 | 16.1 | 0.00 | 2.97 | 2.51 | 84 | 1011.7 |
| 20260506152627 | 5 | 8 | 11.3 | 29.0 | 0.00 | 3.00 | 2.51 | 84 | 1011.7 |
| 20260506152127 | 5 | 9 | 8.0 | 27.4 | 0.00 | 3.00 | 2.51 | 84 | 1011.6 |
| 20260506151627 | 5 | 11 | 12.9 | 32.2 | 0.00 | 3.00 | 2.51 | 84 | 1011.7 |
| 20260506151127 | 5 | 13 | 6.4 | 16.1 | 0.00 | 3.00 | 2.51 | 84 | 1011.7 |
| 20260506150627 | 5 | 13 | 9.7 | 19.3 | 0.00 | 3.02 | 2.51 | 84 | 1011.8 |
| 20260506145627 | 5 | 11 | 14.5 | 24.1 | 0.00 | 3.02 | 2.51 | 84 | 1011.8 |
| 20260506145127 | 4 | 9 | 9.7 | 25.7 | 0.00 | 3.02 | 2.51 | 84 | 1011.8 |
| 20260506144627 | 4 | 10 | 16.1 | 24.1 | 0.00 | 3.05 | 2.51 | 84 | 1011.9 |
| 20260506144129 | 4 | 10 | 9.7 | 19.3 | 0.00 | 3.05 | 2.51 | 84 | 1012.0 |
| 20260506143627 | 4 | 10 | 11.3 | 24.1 | 0.00 | 3.05 | 2.51 | 84 | 1011.9 |
| 20260506142627 | 4 | 15 | 11.3 | 22.5 | 0.03 | 3.05 | 2.51 | 84 | 1011.9 |
| 20260506141627 | 4 | 10 | 12.9 | 25.7 | 0.05 | 3.05 | 2.51 | 84 | 1011.8 |
| 20260506140627 | 4 | 9 | 14.5 | 25.7 | 0.05 | 3.05 | 2.51 | 84 | 1011.8 |
| 20260506135627 | 3 | 10 | 14.5 | 29.0 | 0.10 | 3.05 | 2.51 | 84 | 1011.8 |
| 20260506135127 | 3 | 10 | 14.5 | 35.4 | 0.15 | 3.05 | 2.51 | 84 | 1011.8 |
| 20260506134627 | 3 | 11 | 19.3 | 35.4 | 0.36 | 3.05 | 2.51 | 84 | 1012.0 |
| 20260506134127 | 3 | 11 | 17.7 | 38.6 | 0.43 | 3.05 | 2.51 | 84 | 1011.8 |
| 20260506133127 | 4 | 10 | 20.9 | 38.6 | 0.51 | 3.05 | 2.51 | 84 | 1011.9 |
| 20260506132627 | 3 | 11 | 20.9 | 38.6 | 0.48 | 3.05 | 2.49 | 84 | 1012.0 |
| 20260506132127 | 3 | 11 | 16.1 | 33.8 | 0.51 | 3.05 | 2.49 | 84 | 1012.1 |
| 20260506131627 | 3 | 9 | 16.1 | 35.4 | 0.51 | 3.02 | 2.49 | 84 | 1012.1 |
| 20260506131127 | 3 | 13 | 20.9 | 38.6 | 0.56 | 3.02 | 2.49 | 84 | 1012.1 |
| 20260506130627 | 3 | 8 | 14.5 | 29.0 | 0.56 | 3.00 | 2.46 | 84 | 1012.3 |
| 20260506130127 | 3 | 8 | 20.9 | 33.8 | 0.61 | 3.00 | 2.46 | 84 | 1012.3 |
| 20260506125130 | 3 | 8 | 8.0 | 22.5 | 0.51 | 2.90 | 2.36 | 84 | 1012.6 |
| 20260506124627 | 3 | 11 | 12.9 | 20.9 | 0.38 | 2.72 | 2.16 | 84 | 1012.5 |
| 20260506123627 | 5 | 14 | 16.1 | 25.7 | 0.33 | 2.62 | 2.06 | 84 | 1012.5 |
| 20260506123127 | 5 | 16 | 14.5 | 22.5 | 0.33 | 2.59 | 2.03 | 84 | 1012.4 |
| 20260506122628 | 5 | 10 | 16.1 | 22.5 | 0.33 | 2.59 | 2.03 | 84 | 1012.4 |
| 20260506122127 | 5 | 15 | 9.7 | 19.3 | 0.33 | 2.57 | 1.98 | 84 | 1012.3 |
| 20260506121627 | 5 | 13 | 11.3 | 19.3 | 0.33 | 2.54 | 1.96 | 84 | 1012.3 |
| 20260506121127 | 5 | 12 | 8.0 | 19.3 | 0.28 | 2.51 | 1.93 | 84 | 1012.4 |
| 20260506120627 | 4 | 11 | 8.0 | 12.9 | 0.25 | 2.49 | 1.91 | 84 | 1012.3 |
| 20260506120127 | 4 | 11 | 9.7 | 12.9 | 0.23 | 2.49 | 1.85 | 84 | 1012.4 |
| 20260506115627 | 4 | 11 | 3.2 | 4.8 | 0.20 | 2.49 | 1.83 | 84 | 1012.5 |
| 20260506115127 | 4 | 11 | 3.2 | 4.8 | 0.20 | 2.49 | 1.83 | 84 | 1012.5 |
| 20260506114627 | 4 | 13 | 3.2 | 8.0 | 0.15 | 2.41 | 1.78 | 84 | 1012.5 |
| 20260506114127 | 4 | 11 | 4.8 | 9.7 | 0.10 | 2.39 | 1.75 | 84 | 1012.6 |
| 20260506113627 | 4 | 13 | 4.8 | 11.3 | 0.08 | 2.39 | 1.73 | 84 | 1012.5 |
| 20260506113127 | 5 | 12 | 8.0 | 11.3 | 0.08 | 2.36 | 1.70 | 84 | 1012.6 |
| 20260506112626 | 5 | 10 | 4.8 | 12.9 | 0.08 | 2.36 | 1.70 | 84 | 1012.6 |
| 20260506112127 | 5 | 11 | 3.2 | 8.0 | 0.05 | 2.31 | 1.65 | 84 | 1012.7 |
| 20260506111626 | 4 | 16 | 3.2 | 11.3 | 0.03 | 2.31 | 1.65 | 84 | 1012.8 |
| 20260506111127 | 4 | 14 | 6.4 | 11.3 | 0.03 | 2.31 | 1.65 | 84 | 1012.9 |
| 20260506110627 | 5 | 12 | 6.4 | 11.3 | 0.03 | 2.31 | 1.65 | 84 | 1013.0 |
| 20260506110127 | 5 | 11 | 6.4 | 11.3 | 0.05 | 2.34 | 1.65 | 84 | 1013.1 |
| 20260506105627 | 5 | 15 | 6.4 | 11.3 | 0.05 | 2.36 | 1.65 | 84 | 1013.2 |
| 20260506105126 | 5 | 8 | 8.0 | 16.1 | 0.05 | 2.36 | 1.65 | 84 | 1013.1 |
| 20260506104126 | 5 | 17 | 9.7 | 19.3 | 0.05 | 2.39 | 1.65 | 84 | 1013.2 |
| 20260506103127 | 5 | 16 | 3.2 | 8.0 | 0.05 | 2.39 | 1.63 | 84 | 1013.3 |
| 20260506102626 | 4 | 14 | 11.3 | 19.3 | 0.05 | 2.41 | 1.63 | 84 | 1013.3 |
| 20260506102127 | 4 | 13 | 8.0 | 12.9 | 0.05 | 2.41 | 1.63 | 84 | 1013.3 |
| 20260506101126 | 5 | 12 | 4.8 | 11.3 | 0.05 | 2.44 | 1.63 | 84 | 1013.4 |
| 20260506100627 | 5 | 10 | 4.8 | 11.3 | 0.05 | 2.46 | 1.63 | 84 | 1013.2 |
| 20260506100127 | 5 | 11 | 6.4 | 9.7 | 0.03 | 2.46 | 1.60 | 84 | 1013.3 |
| 20260506095627 | 5 | 9 | 8.0 | 11.3 | 0.00 | 2.44 | 1.57 | 84 | 1013.3 |
| 20260506094627 | 4 | 13 | 9.7 | 16.1 | 0.05 | 2.49 | 1.57 | 84 | 1013.2 |
| 20260506093126 | 4 | 13 | 6.4 | 19.3 | 0.10 | 2.54 | 1.57 | 84 | 1013.2 |
| 20260506092627 | 4 | 15 | 4.8 | 12.9 | 0.13 | 2.54 | 1.57 | 84 | 1013.3 |
| 20260506092126 | 4 | 14 | 6.4 | 14.5 | 0.13 | 2.57 | 1.57 | 84 | 1013.3 |
| 20260506090126 | 4 | 10 | 4.8 | 14.5 | 0.15 | 2.72 | 1.57 | 84 | 1013.1 |
| 20260506085627 | 5 | 16 | 8.0 | 14.5 | 0.23 | 2.72 | 1.57 | 84 | 1013.0 |
| 20260506084127 | 4 | 16 | 4.8 | 14.5 | 0.30 | 2.67 | 1.52 | 84 | 1012.9 |
| 20260506083127 | 4 | 13 | 9.7 | 16.1 | 0.33 | 2.62 | 1.47 | 84 | 1012.9 |
| 20260506082626 | 4 | 18 | 6.4 | 14.5 | 0.33 | 2.62 | 1.45 | 84 | 1012.9 |
| 20260506081627 | 4 | 15 | 6.4 | 14.5 | 0.36 | 2.67 | 1.45 | 84 | 1012.8 |
| 20260506081127 | 4 | 17 | 9.7 | 19.3 | 0.33 | 2.72 | 1.45 | 84 | 1012.8 |
| 20260506080627 | 4 | 15 | 8.0 | 14.5 | 0.36 | 2.74 | 1.42 | 84 | 1012.8 |
| 20260506080127 | 4 | 16 | 4.8 | 11.3 | 0.43 | 2.74 | 1.42 | 84 | 1012.8 |
| 20260506072126 | 3 | 16 | 9.7 | 14.5 | 0.76 | 2.49 | 1.14 | 84 | 1012.9 |
| 20260506071627 | 3 | 9 | 8.0 | 11.3 | 0.79 | 2.46 | 1.09 | 84 | 1013.0 |
| 20260506071126 | 3 | 14 | 3.2 | 14.5 | 0.79 | 2.46 | 1.09 | 84 | 1013.1 |
| 20260506070627 | 3 | 9 | 8.0 | 14.5 | 0.79 | 2.41 | 1.07 | 84 | 1013.0 |
| 20260506070127 | 3 | 16 | 3.2 | 19.3 | 0.76 | 2.34 | 0.99 | 84 | 1013.0 |
| 20260506062126 | 3 | 15 | 3.2 | 9.7 | 0.33 | 1.75 | 0.38 | 84 | 1012.9 |
| 20260506061627 | 3 | 17 | 6.4 | 12.9 | 0.30 | 1.68 | 0.33 | 84 | 1012.8 |
| 20260506061126 | 3 | 14 | 4.8 | 12.9 | 0.28 | 1.65 | 0.30 | 84 | 1012.8 |
| 20260506060627 | 3 | 11 | 6.4 | 12.9 | 0.25 | 1.63 | 0.25 | 84 | 1012.8 |
| 20260506060127 | 3 | 10 | 6.4 | 11.3 | 0.23 | 1.57 | 0.23 | 84 | 1012.8 |
| 20260506051126 | 4 | 12 | 1.6 | 4.8 | 0.03 | 1.37 | 0.03 | 84 | 1013.3 |
| 20260506050626 | 4 | 11 | 4.8 | 12.9 | 0.00 | 1.37 | 0.00 | 84 | 1013.3 |
| 20260506050126 | 3 | 12 | 11.3 | 12.9 | 0.00 | 1.37 | 0.00 | 84 | 1013.4 |
| 20260506045126 | 3 | 11 | 9.7 | 16.1 | 0.00 | 1.37 | 0.00 | 84 | 1013.2 |
| 20260506044126 | 3 | 13 | 9.7 | 19.3 | 0.00 | 1.37 | 0.00 | 84 | 1013.1 |
| 20260506043626 | 3 | 14 | 9.7 | 14.5 | 0.00 | 1.37 | 0.00 | 84 | 1013.0 |
| 20260506043127 | 3 | 11 | 8.0 | 12.9 | 0.00 | 1.37 | 0.00 | 84 | 1013.0 |
| 20260506042627 | 3 | 12 | 8.0 | 12.9 | 0.00 | 1.37 | 0.00 | 84 | 1013.0 |
| 20260506042126 | 3 | 11 | 9.7 | 11.3 | 0.00 | 1.37 | 0.00 | 84 | 1013.1 |
| 20260506041126 | 3 | 14 | 8.0 | 12.9 | 0.00 | 1.37 | 0.00 | 84 | 1013.2 |
| 20260506040626 | 3 | 10 | 4.8 | 11.3 | 0.00 | 1.37 | 0.00 | 84 | 1013.3 |
| 20260506040127 | 3 | 14 | 6.4 | 16.1 | 0.00 | 1.37 | 0.00 | 84 | 1013.3 |
| 20260506035626 | 3 | 15 | 4.8 | 11.3 | 0.00 | 1.37 | 0.00 | 84 | 1013.3 |
| 20260506034626 | 3 | 12 | 6.4 | 12.9 | 0.00 | 1.37 | 0.00 | 84 | 1013.5 |
| 20260506034127 | 3 | 10 | 8.0 | 14.5 | 0.00 | 1.37 | 0.00 | 84 | 1013.5 |
| 20260506033626 | 3 | 12 | 6.4 | 16.1 | 0.00 | 1.37 | 0.00 | 84 | 1013.4 |
| 20260506033126 | 3 | 14 | 8.0 | 14.5 | 0.00 | 1.37 | 0.00 | 84 | 1013.3 |
| 20260506032626 | 3 | 13 | 6.4 | 14.5 | 0.00 | 1.37 | 0.00 | 84 | 1013.4 |
| 20260506032126 | 3 | 14 | 4.8 | 19.3 | 0.00 | 1.37 | 0.00 | 84 | 1013.5 |
| 20260506031626 | 3 | 15 | 9.7 | 16.1 | 0.00 | 1.37 | 0.00 | 84 | 1013.4 |
| 20260506031126 | 3 | 18 | 8.0 | 14.5 | 0.00 | 1.37 | 0.00 | 84 | 1013.4 |
| 20260506030627 | 3 | 10 | 8.0 | 14.5 | 0.00 | 1.37 | 0.00 | 84 | 1013.3 |
| 20260506030127 | 3 | 10 | 8.0 | 20.9 | 0.00 | 1.37 | 0.00 | 84 | 1013.4 |
| 20260506025626 | 3 | 12 | 9.7 | 16.1 | 0.00 | 1.37 | 0.00 | 84 | 1013.5 |
| 20260506025126 | 3 | 11 | 9.7 | 20.9 | 0.00 | 1.37 | 0.00 | 84 | 1013.4 |
| 20260506024626 | 3 | 13 | 11.3 | 19.3 | 0.00 | 1.37 | 0.00 | 84 | 1013.4 |
| 20260506024126 | 3 | 8 | 8.0 | 20.9 | 0.00 | 1.37 | 0.00 | 84 | 1013.4 |
| 20260506023626 | 3 | 10 | 9.7 | 19.3 | 0.00 | 1.37 | 0.00 | 84 | 1013.5 |
| 20260506023126 | 3 | 12 | 4.8 | 14.5 | 0.00 | 1.37 | 0.00 | 84 | 1013.6 |
| 20260506022626 | 3 | 9 | 11.3 | 19.3 | 0.00 | 1.37 | 0.00 | 84 | 1013.5 |
| 20260506022127 | 3 | 11 | 6.4 | 14.5 | 0.00 | 1.37 | 0.00 | 84 | 1013.6 |
| 20260506021626 | 3 | 9 | 9.7 | 14.5 | 0.00 | 1.37 | 0.00 | 84 | 1013.7 |
| 20260506021126 | 3 | 15 | 8.0 | 19.3 | 0.00 | 1.37 | 0.00 | 84 | 1013.6 |
| 20260506020626 | 3 | 12 | 4.8 | 16.1 | 0.00 | 1.37 | 0.00 | 84 | 1013.6 |
| 20260506015626 | 3 | 10 | 4.8 | 14.5 | 0.00 | 1.37 | 0.00 | 84 | 1013.7 |
| 20260506015126 | 3 | 14 | 6.4 | 19.3 | 0.00 | 1.37 | 0.00 | 84 | 1013.8 |
| 20260506014626 | 3 | 17 | 6.4 | 14.5 | 0.00 | 1.37 | 0.00 | 84 | 1013.8 |
| 20260506014126 | 3 | 12 | 4.8 | 16.1 | 0.00 | 1.37 | 0.00 | 84 | 1013.9 |
| 20260506013626 | 3 | 15 | 6.4 | 16.1 | 0.00 | 1.37 | 0.00 | 84 | 1013.9 |
| 20260506013126 | 3 | 16 | 6.4 | 11.3 | 0.00 | 1.37 | 0.00 | 84 | 1013.9 |
| 20260506012626 | 3 | 11 | 9.7 | 19.3 | 0.00 | 1.37 | 0.00 | 84 | 1013.9 |
| 20260506012126 | 3 | 8 | 9.7 | 20.9 | 0.00 | 1.37 | 0.00 | 84 | 1013.9 |
| 20260506011626 | 3 | 12 | 9.7 | 14.5 | 0.00 | 1.37 | 0.00 | 84 | 1013.9 |
| 20260506011126 | 3 | 12 | 6.4 | 22.5 | 0.00 | 1.37 | 0.00 | 84 | 1013.8 |
| 20260506010626 | 3 | 10 | 9.7 | 27.4 | 0.00 | 1.37 | 0.00 | 84 | 1014.0 |